This demonstration page uses our WeatherBlox Daily Observations layout. Learn more.

Left ArrowRight Arrow

Hourly Observations for April 16, 2016

Temp ( °F °C ) Dew Point ( °F °C ) Humidity (%) Winds ( mph kmh ) Pressure ( in mb ) Visibility ( mi km ) Precip ( " mm )
12:53 am 00:53 Clear 58 14.4 39 3.9 50 50 undefined N/A 30.17 1022 10 16 0.00 0.00
1:53 am 01:53 Clear 54 12.2 40 4.4 59 59 NW 3 6 30.16 1021 10 16 0.00 0.00
2:53 am 02:53 Clear 50 10 41 5 71 71 Calm 30.15 1021 10 16 0.00 0.00
3:53 am 03:53 Clear 50 10 40 4.4 68 68 NNW 3 6 30.15 1021 10 16 0.00 0.00
4:53 am 04:53 Clear 50 10 39 3.9 66 66 NNW 3 6 30.15 1021 10 16 0.00 0.00
5:53 am 05:53 Clear 53 11.7 40 4.4 61 61 NW 6 9 30.14 1021 10 16 0.00 0.00
6:53 am 06:53 Sunny 54 12.2 39 3.9 57 57 NNW 7 11 30.15 1021 10 16 0.00 0.00
7:53 am 07:53 Sunny 59 15 39 3.9 48 48 NNW 8 13 30.16 1021 10 16 0.00 0.00
8:53 am 08:53 Sunny 65 18.3 38 3.3 37 37 N 8 13 30.16 1021 10 16 0.00 0.00
9:53 am 09:53 Sunny 69 20.6 38 3.3 32 32 NNW 10 17 30.15 1021 10 16 0.00 0.00
10:53 am 10:53 Sunny 72 22.2 38 3.3 29 29 NNW 13 20 30.14 1021 10 16 0.00 0.00
11:53 am 11:53 Sunny 77 25 34 1.1 21 21 NNE 10 17 30.13 1020 10 16 0.00 0.00
12:53 pm 12:53 Sunny 79 26.1 34 1.1 20 20 N 13 20 30.11 1020 10 16 0.00 0.00
1:53 pm 13:53 Sunny 82 27.8 35 1.7 18 18 N 9 15 30.09 1019 10 16 0.00 0.00
2:53 pm 14:53 Sunny 84 28.9 32 0 15 15 VRB 7 11 30.07 1018 10 16 0.00 0.00
3:53 pm 15:53 Sunny 85 29.4 31 -0.6 14 14 WNW 7 11 30.05 1018 10 16 0.00 0.00
4:53 pm 16:53 Sunny 86 30 30 -1.1 13 13 NW 9 15 30.04 1017 10 16 0.00 0.00
5:53 pm 17:53 Sunny 85 29.4 32 0 15 15 WNW 7 11 30.02 1017 10 16 0.00 0.00
6:53 pm 18:53 Sunny 78 25.6 41 5 27 27 W 3 6 30.02 1017 10 16 0.00 0.00
7:53 pm 19:53 Clear 75 23.9 41 5 29 29 W 6 9 30.01 1016 10 16 0.00 0.00
8:53 pm 20:53 Clear 67 19.4 48 8.9 51 51 NE 6 9 30.04 1017 10 16 0.00 0.00
9:53 pm 21:53 Clear 65 18.3 46 7.8 51 51 N 3 6 30.06 1018 10 16 0.00 0.00
10:53 pm 22:53 Clear 65 18.3 43 6.1 45 45 VRB 3 6 30.07 1018 10 16 0.00 0.00
11:53 pm 23:53 Clear 58 14.4 46 7.8 65 65 undefined N/A 30.07 1018 10 16 0.00 0.00

Powered by AerisWeather